Flag for Switzerland Weather past 2 weeks in Schwyz, Schwyz, Switzerland

Now
54 °F

Cool.


Feels Like: 54 °F
Forecast: 49 / 60 °F
Wind: 1 mph from South

Location: Altdorf

Current Time: May 25, 2015 at 4:07:58 AM

Latest Report: May 25, 2015 at 3:00 AM


Visibility: N/A

Pressure: 30.04 "Hg

Humidity: 87%

Dew point: 51 °F

Location of SchwyzLocation

Historic Weather in Schwyz — Graph

°F

Schwyz temperature yesterday

Maximum temperature yesterday: 64 °F (at 3:00 PM)
Minimum temperature yesterday: 49 °F (at 6:00 AM)
Average temperature yesterday: 56 °F

Past Weeks' High & Low Weather Summary

 TemperatureHumidityPressure
High79 °F (May 13, 5:00 PM)93% (May 16, 1:00 AM)30.39 "Hg (May 16, 1:00 AM)
Low42 °F (May 15, 5:00 PM)32% (May 14, 1:00 AM)29.72 "Hg (May 18, 6:00 PM)
Average57 °F73%30.09 "Hg
* Reported May 10 2:00 AM — May 25 2:00 AM, Schwyz, Weather by CustomWeather, © 2015

Note: Actual official high and low records may vary slightly from our data, if they occured in-between our weather recording intervals... More about our weather records

Advertising

Schwyz weather history for previous 24 hours

 ConditionsComfort  
Time TempWeatherWind HumidityBarometerVisibility
2:00 AM
Mon, May 25
55 °FOvercast.1 mph86%30.05 "Hg9 mi
1:00 AM55 °FCool.2 mph87%30.05 "HgN/A
12:00 AM55 °FCool.1 mph87%30.05 "HgN/A
10:00 PM
Sun, May 24
56 °FCool.1 mph83%30.04 "HgN/A
9:00 PM57 °FCool.2 mph83%30.02 "HgN/A
8:00 PM59 °FOvercast.1 mph80%30.01 "Hg12 mi
7:00 PM59 °FCool.2 mph77%30.00 "HgN/A
6:00 PM61 °FCool.2 mph62%30.00 "HgN/A
5:00 PM61 °FOvercast.5 mph60%30.00 "Hg12 mi
4:00 PM62 °FRefreshingly cool.5 mph56%29.99 "HgN/A
3:00 PM64 °FMild.8 mph54%29.99 "HgN/A
2:00 PM63 °FPartly sunny.7 mph55%30.00 "Hg12 mi
1:00 PM61 °FCool.7 mph64%30.01 "HgN/A
12:00 PM60 °FCool.6 mph61%30.02 "HgN/A
11:00 AM58 °FOvercast.3 mph68%30.04 "Hg9 mi
10:00 AM56 °FCool.5 mph71%30.06 "HgN/A
9:00 AM54 °FCool.3 mph72%30.06 "HgN/A
8:00 AM52 °FPartly sunny.1 mph76%30.06 "Hg11 mi
7:00 AM50 °FCool.2 mph88%30.06 "HgN/A
6:00 AM49 °FCool.2 mph87%30.05 "HgN/A
5:00 AM50 °FPassing clouds.2 mph82%30.04 "Hg9 mi
4:00 AM51 °FCool.3 mph81%30.06 "HgN/A
Weather by CustomWeather, © 2015

See weather overviewHow to use our weather pages